Probability
19 18 18 22 25 26 25 23 22 24 28 29 27 24 24 25 23 18 15 13 10 9 9 9 8 9 11 13 15 16 15 12 9 7 6 5 5 5 7 9 9 9 9
21 19 18 21 25 27 26 24 24 25 29 30 28 26 26 26 25 22 19 14 10 9 8 7 6 7 8 10 13 15 15 12 8 6 4 4 4 4 5 7 8 9 9
25 23 20 22 26 28 28 28 28 29 30 30 29 27 25 24 23 23 21 15 10 7 5 5 5 6 7 9 11 13 12 9 7 4 2 2 2 2 3 3 5 8 10
26 24 23 25 28 30 30 30 31 31 30 29 27 24 21 18 17 18 18 15 10 6 5 4 6 6 6 7 8 8 8 7 6 3 1 0 0 1 1 1 3 6 8
27 26 27 30 32 31 29 28 29 29 27 25 23 20 17 13 12 12 14 15 12 8 7 6 6 5 4 3 3 4 5 5 5 3 1 0 0 0 0 0 1 4 6
32 31 32 33 33 30 27 25 25 24 21 19 18 17 16 13 10 8 11 14 13 11 9 8 6 5 3 1 0 1 1 2 3 3 2 1 0 0 0 0 1 3 4
33 33 33 33 31 29 25 23 21 18 16 16 16 16 16 13 9 5 7 10 12 11 11 10 8 6 5 3 2 1 1 1 1 2 2 1 0 1 1 1 2 2 2
29 29 29 29 29 27 25 22 19 17 15 14 14 14 16 14 8 4 4 8 11 11 11 11 10 8 5 5 5 4 3 2 1 1 1 1 0 1 2 2 1 1 1
25 25 26 27 27 26 24 21 20 19 18 16 15 16 17 15 9 4 4 8 11 12 11 10 9 7 4 4 5 5 5 5 2 1 1 0 0 1 1 1 1 1 1
22 24 25 26 26 26 24 21 20 22 21 20 19 20 21 18 11 5 4 8 11 12 11 9 6 4 2 2 3 5 6 6 5 3 2 1 1 1 1 1 2 3 4
22 23 23 24 25 25 23 20 19 21 22 21 21 23 23 19 13 6 4 7 10 11 11 10 6 3 1 1 3 5 5 5 5 4 4 4 5 5 4 5 6 8 8
22 23 24 24 23 22 21 19 18 19 20 19 19 21 21 18 13 7 3 4 7 11 13 12 9 4 1 0 2 3 3 3 4 4 4 6 8 8 8 8 9 11 13
22 23 23 22 20 20 20 19 17 17 17 17 17 19 19 16 13 10 5 3 4 9 12 11 8 3 1 1 1 1 1 2 3 4 5 7 8 9 10 9 10 12 14
20 20 20 19 19 19 20 18 17 16 16 16 18 18 17 17 16 14 11 7 6 8 11 10 7 5 4 5 5 4 4 4 4 5 7 8 9 9 10 10 10 11 12
17 17 18 18 18 18 18 17 15 14 13 13 14 15 15 14 15 15 13 11 10 10 10 11 10 10 10 11 11 10 9 6 6 6 7 8 8 9 9 9 9 9 10
16 16 15 16 17 17 16 14 13 11 8 7 8 9 9 8 8 9 9 8 8 8 9 11 12 13 13 13 14 13 11 8 7 7 6 6 6 6 6 6 7 7 7
14 14 14 14 15 14 14 13 12 10 7 5 4 4 3 3 2 3 3 2 2 4 8 12 13 13 12 11 11 11 9 8 7 7 5 4 4 4 4 4 4 4 4
11 11 12 13 14 14 13 13 13 12 11 8 5 3 1 0 0 0 1 2 3 5 9 13 14 12 10 9 8 8 7 6 6 6 5 4 4 4 4 3 3 3 3
7 7 8 10 12 12 12 12 13 15 15 13 10 5 2 0 0 0 2 5 8 8 10 13 14 12 9 8 7 6 6 5 5 6 6 6 6 6 5 4 4 3 3
6 5 5 6 8 8 9 11 13 15 15 15 14 9 4 2 1 1 2 6 9 10 10 12 14 12 10 8 6 5 5 5 5 5 6 6 6 6 6 6 5 4 3
6 5 4 4 4 5 7 9 12 13 14 14 13 10 6 4 4 3 3 5 7 8 8 9 11 11 8 6 5 4 4 5 5 5 5 6 6 6 6 6 5 4 3
7 6 4 3 4 5 7 9 10 11 12 12 12 9 5 5 6 6 5 5 6 6 5 6 7 7 5 4 4 4 5 5 5 5 5 5 6 6 6 6 5 3 3
7 6 4 4 5 6 7 9 10 10 10 11 10 8 6 6 7 6 5 4 4 5 4 3 3 2 2 2 3 4 4 4 5 5 4 4 4 5 6 4 3 3 3
7 5 4 5 6 6 7 9 10 10 10 9 9 9 9 8 7 6 5 4 4 4 4 2 1 1 1 1 1 2 2 3 3 3 3 3 3 4 4 3 1 1 1
5 4 4 4 5 6 7 9 10 10 10 8 8 9 10 9 7 6 6 5 4 4 3 3 2 2 2 2 1 1 1 1 1 1 2 3 3 3 2 1 0 0 0
4 4 3 4 4 4 6 8 9 9 8 8 8 9 10 9 7 6 6 5 4 4 3 3 3 3 3 3 2 2 1 0 0 0 1 3 3 2 1 0 0 0 0
Wind_Speed
8 7 6 6 6 6 5 5 4 4 4 4 4 4 3 3 3 3 3 3 4 3 3 3 4 3 3 3 3 3 3 3 3 2 1 2 2 3 2 3 3 3 3
8 7 7 6 6 6 5 4 4 4 4 4 4 4 4 3 3 3 4 3 4 4 4 3 4 3 3 4 3 3 3 3 4 3 2 2 3 3 2 4 3 2 2
8 8 7 7 6 6 5 4 4 4 4 4 4 4 3 3 3 3 3 3 3 3 3 4 4 4 4 3 4 4 3 3 3 4 3 2 3 2 3 3 3 2 3
7 7 7 7 6 6 5 5 5 4 4 4 3 3 3 3 3 3 3 3 3 3 3 3 4 5 4 4 4 4 4 4 4 4 3 3 3 2 3 3 3 3 3
7 7 7 6 6 6 5 5 5 5 4 4 3 3 3 3 2 2 3 4 3 3 3 3 3 1 2 3 4 3 3 4 4 4 3 3 2 2 3 4 3 3 3
7 7 6 6 6 5 5 5 5 4 4 4 4 4 4 2 4 1 3 3 3 3 3 3 3 4 3 2 1 2 3 4 4 3 3 3 3 4 3 4 3 4 3
6 6 6 6 6 6 6 5 5 5 4 4 4 4 3 2 5 3 3 4 4 3 3 3 4 2 3 3 4 5 4 3 4 5 4 4 4 4 4 5 4 5 4
6 6 6 6 6 5 5 5 5 4 4 4 4 4 4 3 5 4 4 5 4 4 4 4 4 3 2 2 3 3 3 3 4 5 4 4 4 3 5 6 5 5 5
6 6 6 6 6 5 5 5 4 4 4 4 4 4 4 3 5 5 5 5 4 4 4 4 4 3 2 1 3 4 3 3 3 2 3 3 3 4 5 5 4 4 4
5 5 5 5 5 5 5 4 4 4 4 4 4 4 4 4 5 5 5 5 4 4 4 4 3 2 3 2 5 5 5 4 3 3 4 5 6 6 7 7 5 5 4
5 5 5 5 5 4 4 4 3 4 3 4 3 4 4 4 6 7 6 5 4 4 4 4 3 5 4 4 6 5 3 4 4 5 5 4 4 4 5 5 5 5 5
4 4 4 4 4 4 4 4 4 4 4 4 4 4 4 4 4 6 7 7 6 5 4 3 2 6 5 5 5 2 2 5 6 5 5 4 4 4 3 3 4 5 5
4 4 4 4 4 4 5 5 5 4 4 4 4 4 3 3 4 7 8 8 7 6 4 1 1 5 5 6 6 5 5 6 5 5 5 5 4 3 3 3 4 5 5
3 3 3 4 4 3 3 3 3 3 4 4 4 3 3 3 3 3 4 6 7 6 5 3 6 7 7 5 5 6 6 5 5 5 5 5 4 4 5 5 5 5 5
2 2 3 3 3 3 3 2 3 2 2 3 3 3 3 3 2 2 3 4 4 4 4 5 4 4 5 5 5 4 5 5 5 6 5 5 5 5 5 5 5 5 6
2 1 1 2 2 2 3 3 2 2 3 3 2 3 2 1 2 4 5 5 5 4 4 4 4 5 5 5 4 4 5 5 5 5 5 5 5 5 5 5 5 5 5
0 0 1 1 1 2 2 3 3 3 4 5 4 3 3 3 3 4 5 5 4 5 5 5 5 5 5 4 4 5 5 4 4 5 5 5 5 5 5 5 5 6 6
1 1 1 1 1 1 2 2 3 3 3 3 4 5 5 4 4 5 4 3 3 5 5 6 5 5 4 4 4 4 4 4 4 5 5 6 5 5 5 5 5 6 6
1 1 1 1 1 1 2 3 3 3 3 2 1 3 5 5 5 5 5 4 4 4 5 5 5 4 5 5 4 4 5 5 5 5 5 6 6 6 6 6 6 6 6
1 0 2 2 1 1 2 2 2 3 3 2 2 1 1 2 2 2 3 4 4 4 5 5 5 5 5 4 4 4 5 5 5 6 6 6 6 6 6 7 6 6 6
2 1 3 3 2 2 2 3 3 3 3 3 2 1 2 4 3 4 4 4 4 5 4 5 5 4 4 4 4 5 6 5 5 6 6 5 5 5 5 6 6 6 5
3 3 3 3 3 2 3 3 3 4 4 4 3 2 4 4 3 3 3 3 3 4 4 4 4 4 4 4 5 5 6 6 6 5 6 5 5 5 5 5 5 5 5
3 3 4 3 3 3 4 4 4 4 4 4 3 3 2 3 3 3 3 3 3 3 3 3 4 4 4 4 5 5 6 6 6 6 6 6 6 6 6 6 7 7 6
3 4 4 3 3 4 4 4 4 4 4 4 3 3 3 3 3 3 3 3 3 3 3 4 4 5 5 4 4 5 5 5 6 6 7 6 6 6 6 6 6 7 6
3 4 4 4 4 4 4 4 4 4 4 4 3 3 3 3 3 3 3 3 3 4 4 4 4 5 6 6 6 5 3 3 5 5 5 6 7 7 6 6 6 6 6
3 4 4 4 4 4 3 4 4 4 4 4 4 4 3 3 3 3 3 3 3 4 4 4 5 5 6 5 5 4 1 2 3 5 6 5 5 5 6 5 7 6 6
Wind_Direction
197 197 196 191 191 193 197 201 204 207 198 193 194 197 198 204 212 220 231 210 222 225 229 222 231 246 246 239 230 235 242 253 255 245 233 195 212 247 222 238 224 222 170
193 194 196 194 191 194 195 198 202 201 203 196 194 194 199 196 203 215 224 218 222 227 229 229 229 222 231 250 245 243 242 245 247 243 233 219 225 226 234 255 245 231 222
190 193 192 192 190 193 193 193 196 198 202 197 190 191 194 196 203 213 220 223 225 230 229 226 227 224 234 240 250 248 242 235 236 234 234 220 234 225 234 247 246 255 247
191 194 191 192 192 190 190 192 196 196 193 189 186 186 185 193 201 202 208 216 225 235 238 235 230 231 235 238 239 243 250 249 239 241 230 222 219 215 240 250 242 231 252
189 193 190 191 190 190 192 195 194 195 193 183 180 180 187 198 199 202 208 206 212 223 228 236 239 260 340 292 283 261 251 254 247 246 246 243 231 231 246 252 256 249 238
189 190 184 187 187 188 193 195 193 192 188 183 187 189 205 206 103 114 251 210 211 221 225 230 218 200 179 194 276 307 296 266 268 263 257 257 247 247 255 259 261 256 254
187 183 179 182 185 189 194 193 195 195 189 196 198 202 213 160 132 167 240 240 222 223 225 234 244 185 201 199 185 201 220 239 255 268 269 276 265 255 256 253 253 263 273
176 178 181 185 189 188 191 193 198 199 197 203 208 212 217 174 155 185 216 232 233 226 228 232 246 236 230 229 232 230 233 223 231 240 261 270 277 265 246 250 249 245 255
177 182 185 187 189 189 192 195 198 199 202 206 207 208 212 186 168 186 216 227 225 229 233 234 236 227 120 196 244 244 243 229 207 239 284 283 302 278 260 252 242 244 258
181 183 181 184 190 193 192 193 195 199 206 208 206 210 212 207 168 179 221 235 223 226 222 218 209 224 149 203 239 244 247 247 246 222 230 232 238 228 222 239 251 247 256
178 177 179 183 188 185 183 186 194 203 207 213 214 217 216 212 174 180 209 246 236 234 231 224 186 159 179 214 247 252 265 274 255 250 244 240 236 233 227 229 246 255 257
173 176 180 186 193 181 182 187 195 202 203 210 218 224 214 201 194 185 198 235 277 250 250 249 187 158 193 219 235 247 250 260 255 252 253 254 253 248 241 240 245 257 262
165 173 178 184 193 192 192 193 196 201 215 219 220 222 217 205 184 182 196 218 245 255 259 303 161 183 204 217 221 216 223 239 249 254 257 261 261 260 250 234 231 234 243
157 166 176 180 186 190 201 204 210 214 223 228 231 232 225 212 219 202 203 209 220 234 246 210 193 203 225 238 211 213 232 243 254 259 262 262 262 247 240 239 236 230 236
140 164 181 177 182 189 191 210 220 220 240 250 248 241 240 236 228 224 229 226 231 233 239 232 227 218 224 228 230 230 235 235 240 249 251 251 250 251 248 242 242 243 244
138 156 185 190 187 199 195 193 187 223 192 209 248 263 249 256 191 197 224 244 247 228 228 235 237 238 242 244 243 239 236 242 247 251 252 251 251 252 252 247 243 246 247
132 157 222 214 201 207 214 221 215 206 202 201 210 224 241 234 215 213 220 226 220 195 216 237 241 242 246 250 253 254 251 249 251 255 256 254 252 251 249 245 241 240 243
229 149 250 240 254 245 235 236 237 241 226 218 204 202 205 209 216 218 209 197 208 209 233 243 245 245 247 248 249 255 258 249 239 245 252 254 253 252 249 247 245 244 245
274 289 275 283 268 273 269 263 260 255 252 241 232 179 183 191 192 192 188 220 229 227 236 245 249 246 246 249 251 250 250 250 246 245 246 253 253 252 252 251 247 233 240
234 324 290 282 278 271 271 272 271 265 260 257 249 258 167 190 211 194 205 235 248 247 246 249 249 252 252 255 253 251 250 251 249 246 247 247 250 253 252 253 252 243 234
277 232 226 268 280 286 288 283 277 271 270 271 269 246 230 240 232 227 226 229 243 254 257 258 256 250 248 251 253 255 257 257 254 254 252 249 251 251 254 253 249 248 245
288 292 282 276 280 284 283 278 277 275 274 273 278 240 202 241 256 250 244 246 252 262 266 263 263 262 259 256 256 255 254 253 252 252 251 250 247 247 246 247 247 246 243
292 297 291 283 275 259 256 266 271 274 276 276 274 271 242 254 266 266 261 255 255 258 261 260 263 267 267 264 262 257 255 254 253 251 250 247 247 243 242 241 239 241 243
295 291 288 284 280 277 276 274 273 274 273 274 275 273 268 262 267 271 270 264 263 259 257 255 257 261 264 266 262 260 262 270 265 252 248 248 249 248 243 238 238 237 237
291 288 289 289 286 284 285 286 285 285 287 287 284 283 283 279 277 279 273 268 267 264 265 263 258 258 262 265 269 276 289 282 277 279 255 246 248 249 248 243 240 240 236
295 296 297 298 298 297 294 294 296 299 299 297 295 295 293 289 288 292 286 277 273 266 263 259 259 267 270 264 268 281 276 256 260 268 263 252 248 248 246 242 240 239 236